Location: George Washington National Forest Helicopter Landing Site
(38.6463°N, 79.0851°W)
Time: 20:49:24
(UTC-04:00)

Courier 1B Rocket - All Passes

Search period start: 23 August 2019 00:00
Search period end: 02 September 2019 00:00
Orbit: 920 x 1202 km, 28.3° (Epoch: 22 August)

Date Brightness Start Highest point End Pass type
(mag) Time Alt. Az. Time Alt. Az. Time Alt. Az.
23 Aug - 02:46:27 10° SSW 02:51:00 18° SSE 02:55:43 10° ESE visible
23 Aug - 04:37:17 10° SW 04:43:45 33° SSE 04:50:30 10° ESE visible
23 Aug - 06:29:56 10° WSW 06:36:51 38° S 06:43:56 10° ESE daylight
23 Aug - 08:23:38 10° WSW 08:29:55 27° SSW 08:36:11 10° SE daylight
23 Aug - 10:20:29 10° SW 10:22:36 11° SSW 10:24:43 10° SSW daylight
24 Aug - 01:47:34 10° S 01:50:13 12° SSE 01:52:55 10° SE night (unlit)
24 Aug - 03:36:47 10° SW 03:42:47 28° SSE 03:49:03 10° ESE visible
24 Aug - 05:28:58 10° WSW 05:35:46 38° S 05:42:50 10° ESE visible
24 Aug - 07:22:17 10° WSW 07:28:53 32° SSW 07:35:35 10° SE daylight
24 Aug - 09:17:14 10° WSW 09:21:43 16° SSW 09:26:11 10° S daylight
25 Aug - 02:36:36 10° SSW 02:41:53 23° SSE 02:47:24 10° ESE visible
25 Aug - 04:28:11 10° WSW 04:34:43 36° S 04:41:35 10° ESE visible
25 Aug - 06:21:06 10° WSW 06:27:49 35° S 06:34:43 10° SE daylight
25 Aug - 08:15:13 10° WSW 08:20:46 21° SSW 08:26:22 10° SSE daylight
26 Aug - 01:36:52 10° SSW 01:41:04 17° SSE 01:45:26 10° ESE night (unlit)
26 Aug - 03:27:34 10° SW 03:33:43 32° SSE 03:40:15 10° ESE visible
26 Aug - 05:20:05 10° WSW 05:26:45 37° S 05:33:42 10° ESE visible
26 Aug - 07:13:40 10° WSW 07:19:47 26° SSW 07:26:01 10° SE daylight
26 Aug - 09:10:29 10° SW 09:12:31 11° SSW 09:14:33 10° SSW daylight
27 Aug - 00:38:13 10° S 00:40:20 12° SSE 00:42:29 10° SE night (unlit)
27 Aug - 02:27:09 10° SW 02:32:48 27° SSE 02:38:48 10° ESE visible
27 Aug - 04:19:14 10° WSW 04:25:42 37° S 04:32:34 10° ESE visible
27 Aug - 06:12:24 10° WSW 06:18:46 31° SSW 06:25:22 10° SE visible
27 Aug - 08:07:17 10° WSW 08:11:36 16° SSW 08:15:59 10° S daylight
28 Aug - 01:27:01 10° SSW 01:31:58 22° SSE 01:37:09 10° ESE night (unlit)
28 Aug - 03:18:31 10° WSW 03:24:43 35° S 03:31:19 10° ESE visible
28 Aug - 05:11:20 10° WSW 05:17:45 34° S 05:24:28 10° SE visible
28 Aug - 07:05:21 10° WSW 07:10:40 21° SSW 07:16:07 10° SSE daylight
29 Aug - 00:27:22 10° S 00:31:13 16° SSE 00:35:11 10° ESE night (unlit)
29 Aug - 02:17:58 10° SW 02:23:47 31° SSE 02:30:00 10° ESE visible
29 Aug - 04:10:24 10° WSW 04:16:43 36° S 04:23:26 10° ESE visible
29 Aug - 06:03:53 10° WSW 06:09:42 25° SSW 06:15:45 10° SE visible
29 Aug - 08:00:57 10° SW 08:02:26 11° SSW 08:03:56 10° SSW daylight
29 Aug - 23:28:57 10° SSE 23:30:31 11° SSE 23:32:06 10° SE night (unlit)
30 Aug - 01:17:36 10° SW 01:22:56 26° SSE 01:28:35 10° ESE night (unlit)
30 Aug - 03:09:37 10° WSW 03:15:45 36° S 03:22:18 10° ESE visible
30 Aug - 05:02:42 10° WSW 05:08:43 29° SSW 05:15:04 10° SE visible
30 Aug - 06:57:34 10° WSW 07:01:32 15° SSW 07:05:36 10° S daylight
31 Aug - 00:17:31 10° SSW 00:22:09 21° SSE 00:27:00 10° ESE night (unlit)
31 Aug - 02:08:57 10° SW 02:14:50 34° S 02:21:05 10° ESE visible
31 Aug - 04:01:42 10° WSW 04:07:45 33° S 04:14:11 10° SE visible
31 Aug - 05:55:40 10° WSW 06:00:37 20° SSW 06:05:46 10° SSE visible
31 Aug - 23:17:53 10° S 23:21:26 15° SSE 23:25:06 10° ESE night (unlit)
01 Sep - 01:08:26 10° SW 01:13:58 30° S 01:19:49 10° ESE night (unlit)
01 Sep - 03:00:50 10° WSW 03:06:48 34° S 03:13:11 10° ESE visible
01 Sep - 04:54:15 10° WSW 04:59:42 24° SSW 05:05:24 10° SSE visible
01 Sep - 22:19:38 10° SSE 22:20:46 10° SSE 22:21:54 10° SE night (unlit)
